Weather History for Auburn, IN

Change the Weather History Date:

Wednesday, March 19, 2014

  Actual Average (KFWA) Record (KFWA)
Temperature  
Mean Temperature 42 °F 40 °F  
Max Temperature 50 °F 49 °F 83 °F (2012)
Min Temperature 33 °F 30 °F 7 °F (1923)
Degree Days  
Heating Degree Days 24 26  
Month to date heating degree days 551  
Since 1 July heating degree days 5149  
Cooling Degree Days 0 0  
Month to date cooling degree days 0  
Year to date cooling degree days 0  
Moisture  
Dew Point 37 °F    
Average Humidity 85    
Maximum Humidity 93    
Minimum Humidity 71    
Precipitation  
Precipitation 0.06 in 0.09 in 0.79 in (1906)
Month to date precipitation 1.54  
Year to date precipitation 5.84  
Snow  
Snow 0.00 in 0.10 in 1.10 in (1951)
Month to date snowfall 3.0  
Since 1 July snowfall 31.4  
Snow Depth -    
Sea Level Pressure  
Sea Level Pressure 29.74 in    
Wind  
Wind Speed 6 mph (SW)    
Max Wind Speed 21 mph    
Max Gust Speed 32 mph    
Visibility 6 miles    
Events Rain    
T = Trace of Precipitation, MM = Missing Value Source: NWS Daily Summary

Daily Weather History Graph

Daily Weather History Graph

Search for Another Location

Airport:

Trip Planner

Search our weather history database for the weather conditions in past years. The results will help you decide how hot, cold, wet, or windy it might be!

Date:

Astronomy

Mar. 19, 2014 Rise Set
Actual Time 7:45 AM EDT 7:51 PM EDT
Civil Twilight 7:17 AM EDT 8:18 PM EDT
Nautical Twilight 6:45 AM EDT 8:51 PM EDT
Astronomical Twilight 6:12 AM EDT 9:24 PM EDT
Moon 11:11 PM EDT (3/19) 9:08 AM EDT (3/19)
Length of Visible Light 13h 01m
Length of Day
12h 06m
Waning Gibbous, 91% of the Moon is Illuminated
Mar 19
Waning Gibbous
Mar 23
Last Quarter
Mar 30
New
Apr 7
First Quarter
Apr 15
Full

Hourly Weather History & Observations

Time (EDT) Temp. Windchill Dew Point Humidity Pressure Visibility Wind Dir Wind Speed Gust Speed Precip Events Conditions
12:15 AM 35.6 °F - 32.0 °F 87% 29.85 in 10.0 mi Calm Calm - N/A   Scattered Clouds
12:35 AM 33.8 °F - 30.2 °F 87% 29.85 in 7.0 mi Calm Calm - N/A   Scattered Clouds
12:55 AM 33.8 °F - 32.0 °F 93% 29.84 in 7.0 mi Calm Calm - N/A   Scattered Clouds
1:15 AM 35.6 °F 31.7 °F 32.0 °F 87% 29.82 in 7.0 mi East 4.6 mph - N/A   Overcast
1:35 AM 35.6 °F 32.8 °F 32.0 °F 87% 29.81 in 7.0 mi East 3.5 mph - N/A   Overcast
1:55 AM 35.6 °F 31.7 °F 32.0 °F 87% 29.80 in 7.0 mi East 4.6 mph - N/A   Overcast
2:15 AM 35.6 °F 32.8 °F 32.0 °F 87% 29.79 in 7.0 mi East 3.5 mph - N/A   Overcast
2:35 AM 35.6 °F 30.7 °F 32.0 °F 87% 29.78 in 7.0 mi ESE 5.8 mph - N/A   Overcast
2:55 AM 37.4 °F 34.9 °F 32.0 °F 81% 29.77 in 10.0 mi East 3.5 mph - N/A   Overcast
3:15 AM 37.4 °F 32.8 °F 32.0 °F 81% 29.76 in 7.0 mi East 5.8 mph - N/A   Overcast
3:35 AM 37.4 °F 33.8 °F 32.0 °F 81% 29.75 in 7.0 mi ESE 4.6 mph - N/A   Overcast
3:55 AM 37.4 °F 33.8 °F 33.8 °F 87% 29.74 in 10.0 mi ESE 4.6 mph - N/A   Overcast
4:15 AM 37.4 °F 34.9 °F 33.8 °F 87% 29.73 in 7.0 mi ESE 3.5 mph - N/A   Overcast
4:35 AM 37.4 °F 33.8 °F 33.8 °F 87% 29.72 in 10.0 mi ESE 4.6 mph - N/A   Overcast
4:55 AM 39.2 °F - 33.8 °F 81% 29.72 in 7.0 mi Calm Calm - N/A   Overcast
5:15 AM 39.2 °F - 35.6 °F 87% 29.72 in 10.0 mi Calm Calm - N/A   Overcast
5:35 AM 41.0 °F - 35.6 °F 81% 29.71 in 10.0 mi Calm Calm - N/A   Overcast
5:55 AM 41.0 °F - 35.6 °F 81% 29.71 in 10.0 mi Calm Calm - N/A   Overcast
6:15 AM 41.0 °F 39.0 °F 35.6 °F 81% 29.70 in 7.0 mi ESE 3.5 mph - N/A   Overcast
6:35 AM 41.0 °F - 35.6 °F 81% 29.70 in 7.0 mi Calm Calm - N/A Rain Light Rain
6:55 AM 41.0 °F - 37.4 °F 87% 29.70 in 4.0 mi Calm Calm - 0.01 in Rain Rain
7:15 AM 42.8 °F 39.3 °F 39.2 °F 87% 29.70 in 4.0 mi South 5.8 mph - 0.05 in Rain Rain
7:35 AM 42.8 °F 40.1 °F 41.0 °F 93% 29.69 in 5.0 mi South 4.6 mph - 0.05 in   Light Drizzle
7:55 AM 42.8 °F - 41.0 °F 93% 29.69 in 5.0 mi Calm Calm - 0.05 in   Overcast
8:15 AM 42.8 °F 39.3 °F 41.0 °F 93% 29.68 in 5.0 mi South 5.8 mph - N/A   Overcast
8:35 AM 42.8 °F 38.6 °F 41.0 °F 93% 29.67 in 5.0 mi SSE 6.9 mph - N/A   Overcast
8:55 AM 42.8 °F 38.0 °F 41.0 °F 93% 29.66 in 5.0 mi South 8.1 mph - N/A   Overcast
9:15 AM 44.6 °F 40.7 °F 41.0 °F 87% 29.66 in 7.0 mi South 6.9 mph - N/A   Overcast
9:35 AM 44.6 °F 39.2 °F 41.0 °F 87% 29.67 in 7.0 mi South 10.4 mph 18.4 mph N/A   Overcast
9:55 AM 44.6 °F 39.2 °F 41.0 °F 87% 29.66 in 7.0 mi South 10.4 mph 17.3 mph N/A   Overcast
10:15 AM 44.6 °F 38.4 °F 41.0 °F 87% 29.66 in 10.0 mi SSW 12.7 mph 19.6 mph N/A   Overcast
10:35 AM 44.6 °F 39.2 °F 41.0 °F 87% 29.66 in 10.0 mi SSW 10.4 mph 16.1 mph N/A   Overcast
10:55 AM 46.4 °F 41.5 °F 41.0 °F 81% 29.66 in 10.0 mi SSW 10.4 mph 19.6 mph N/A   Overcast
11:15 AM 48.2 °F - 41.0 °F 76% 29.66 in 10.0 mi SSW 11.5 mph 18.4 mph N/A   Overcast
11:35 AM 48.2 °F - 41.0 °F 76% 29.66 in 10.0 mi SSW 13.8 mph 19.6 mph N/A   Overcast
11:55 AM 48.2 °F - 42.8 °F 82% 29.65 in 10.0 mi SSW 10.4 mph 19.6 mph N/A   Overcast
12:15 PM 48.2 °F - 42.8 °F 82% 29.65 in 10.0 mi SSW 10.4 mph - N/A   Overcast
12:35 PM 50.0 °F - 42.8 °F 76% 29.65 in 10.0 mi SSW 12.7 mph 20.7 mph N/A   Overcast
12:55 PM 50.0 °F - 42.8 °F 76% 29.65 in 10.0 mi SSW 13.8 mph 18.4 mph N/A   Overcast
1:15 PM 50.0 °F - 42.8 °F 76% 29.65 in 10.0 mi SW 8.1 mph - N/A   Overcast
1:35 PM 50.0 °F - 42.8 °F 76% 29.65 in 10.0 mi SSW 10.4 mph 17.3 mph N/A   Overcast
1:55 PM 50.0 °F - 42.8 °F 76% 29.65 in 10.0 mi SW 11.5 mph 20.7 mph N/A   Overcast
2:15 PM 50.0 °F - 41.0 °F 71% 29.65 in 10.0 mi SW 11.5 mph 20.7 mph N/A   Overcast
2:35 PM 50.0 °F - 41.0 °F 71% 29.65 in 10.0 mi SW 13.8 mph 23.0 mph N/A   Overcast
2:55 PM 48.2 °F - 41.0 °F 76% 29.65 in 7.0 mi SW 13.8 mph 24.2 mph N/A   Overcast
3:15 PM 46.4 °F 41.1 °F 42.8 °F 87% 29.65 in 4.0 mi SW 11.5 mph 19.6 mph N/A   Haze
3:35 PM 46.4 °F 41.5 °F 42.8 °F 87% 29.65 in 5.0 mi WSW 10.4 mph 20.7 mph N/A Rain Light Rain
3:55 PM 44.6 °F 38.1 °F 41.0 °F 87% 29.66 in 7.0 mi WSW 13.8 mph 19.6 mph N/A   Overcast
4:15 PM 44.6 °F 38.1 °F 41.0 °F 87% 29.67 in 5.0 mi WSW 13.8 mph 21.9 mph N/A   Overcast
4:35 PM 44.6 °F 39.2 °F 41.0 °F 87% 29.67 in 5.0 mi WSW 10.4 mph 19.6 mph N/A   Overcast
4:55 PM 44.6 °F 38.1 °F 41.0 °F 87% 29.68 in 4.0 mi WSW 13.8 mph 32.2 mph N/A   Overcast
5:15 PM 42.8 °F 35.1 °F 39.2 °F 87% 29.70 in 1.8 mi WSW 16.1 mph 24.2 mph N/A   Overcast
5:35 PM 42.8 °F 35.8 °F 39.2 °F 87% 29.71 in 1.2 mi WSW 13.8 mph 20.7 mph N/A   Drizzle
5:55 PM 41.0 °F 33.9 °F 37.4 °F 87% 29.72 in 2.0 mi West 12.7 mph 23.0 mph N/A   Overcast
6:15 PM 41.0 °F 31.6 °F 37.4 °F 87% 29.76 in 2.0 mi West 20.7 mph 28.8 mph N/A Rain Light Rain
6:35 PM 37.4 °F 27.8 °F 35.6 °F 93% 29.78 in 2.5 mi West 17.3 mph 25.3 mph N/A   Light Drizzle
6:55 PM 37.4 °F 27.5 °F 33.8 °F 87% 29.79 in 10.0 mi West 18.4 mph 26.5 mph N/A   Overcast
7:15 PM 37.4 °F 28.5 °F 33.8 °F 87% 29.81 in 2.5 mi West 15.0 mph 21.9 mph N/A   Overcast
7:35 PM 37.4 °F 28.9 °F 33.8 °F 87% 29.82 in 3.0 mi West 13.8 mph - N/A   Overcast
7:55 PM 35.6 °F 26.2 °F 33.8 °F 93% 29.84 in 2.5 mi West 15.0 mph 20.7 mph N/A   Drizzle
8:15 PM 35.6 °F 26.2 °F 33.8 °F 93% 29.85 in 2.0 mi West 15.0 mph 20.7 mph N/A   Drizzle
8:35 PM 35.6 °F 25.9 °F 33.8 °F 93% 29.85 in 4.0 mi West 16.1 mph 21.9 mph N/A   Light Drizzle
8:55 PM 37.4 °F 27.8 °F 33.8 °F 87% 29.86 in 5.0 mi West 17.3 mph 23.0 mph N/A   Overcast
9:15 PM 37.4 °F 30.3 °F 33.8 °F 87% 29.87 in 4.0 mi West 10.4 mph 16.1 mph N/A   Overcast
9:35 PM 35.6 °F 28.6 °F 33.8 °F 93% 29.88 in 5.0 mi West 9.2 mph 16.1 mph N/A   Overcast
9:55 PM 37.4 °F 30.3 °F 32.0 °F 81% 29.88 in 7.0 mi West 10.4 mph - N/A   Overcast
10:15 PM 37.4 °F 30.8 °F 32.0 °F 81% 29.88 in 5.0 mi WSW 9.2 mph - N/A   Haze
10:35 PM 35.6 °F 26.6 °F 32.0 °F 87% 29.89 in 3.0 mi West 13.8 mph 24.2 mph N/A   Overcast
10:55 PM 35.6 °F 26.6 °F 32.0 °F 87% 29.90 in 2.5 mi WSW 13.8 mph 19.6 mph N/A   Light Drizzle
11:15 PM 35.6 °F 27.5 °F 32.0 °F 87% 29.91 in 4.0 mi WSW 11.5 mph 26.5 mph N/A   Overcast
11:35 PM 35.6 °F 26.6 °F 32.0 °F 87% 29.91 in 3.0 mi West 13.8 mph 20.7 mph N/A   Overcast
11:55 PM 35.6 °F 25.9 °F 32.0 °F 87% 29.92 in 4.0 mi West 16.1 mph 23.0 mph N/A   Overcast